Date,TemperatureHighF,TemperatureAvgF,TemperatureLowF,DewpointHighF,DewpointAvgF,DewpointLowF,HumidityHigh,HumidityAvg,HumidityLow,PressureMaxIn,PressureMinIn,WindSpeedMaxMPH,WindSpeedAvgMPH,GustSpeedMaxMPH,PrecipitationSumIn
2013-7-1,88.7,77.3,73.9,79.0,74.3,72.0,96,91,70,30.00,29.84,0,0,0,0.30
2013-7-2,87.0,77.0,73.7,81.0,75.2,73.0,97,94,79,30.08,29.94,0,0,0,0.54
2013-7-3,90.9,80.9,75.1,81.0,76.5,73.0,97,87,69,30.10,30.02,0,0,0,0.00
2013-7-4,90.6,82.1,75.9,79.0,75.4,71.0,94,81,66,30.12,30.04,0,0,0,0.00
2013-7-5,93.8,83.4,77.6,80.0,76.3,74.0,92,80,61,30.11,30.04,0,0,0,0.00
2013-7-6,93.5,82.8,77.8,78.0,75.7,74.0,89,80,61,30.09,30.03,0,0,0,0.00
2013-7-7,96.6,84.7,78.1,80.0,76.7,74.0,91,78,57,30.10,30.02,0,0,0,0.00
2013-7-8,98.0,85.2,78.8,80.0,76.8,74.0,91,77,53,30.13,30.05,0,0,0,0.00
2013-7-9,98.7,84.8,77.1,80.0,76.3,74.0,91,77,54,30.13,30.03,0,0,0,0.00
2013-7-10,96.5,84.2,77.1,78.0,75.2,73.0,90,75,53,30.04,29.95,0,0,0,0.00
2013-7-11,93.1,81.3,72.5,79.0,74.9,70.0,96,82,55,30.01,29.89,0,0,0,1.04
2013-7-12,93.3,81.0,74.4,80.0,75.1,73.0,96,83,58,29.92,29.85,0,0,0,0.00
2013-7-13,89.4,77.9,74.7,79.0,74.3,72.0,94,88,71,29.97,29.87,0,0,0,0.06
2013-7-14,89.0,76.5,72.3,80.0,73.5,70.0,94,90,74,30.06,29.94,0,0,0,0.11
2013-7-15,91.7,79.0,72.0,79.0,74.6,71.0,97,87,65,30.08,29.99,0,0,0,0.00
2013-7-16,96.8,81.5,76.7,81.0,75.7,74.0,93,83,59,30.12,30.05,0,0,0,0.12
2013-7-17,92.0,81.1,76.7,81.0,76.0,72.0,94,84,67,30.11,30.04,0,0,0,0.03
2013-7-18,91.3,80.2,75.4,78.0,75.0,72.0,94,85,63,30.09,30.02,0,0,0,0.05
2013-7-19,88.9,79.1,73.3,80.0,74.8,71.0,95,87,72,30.09,30.00,0,0,0,0.05
2013-7-20,90.1,79.3,74.5,82.0,75.8,71.0,97,89,72,30.07,29.99,0,0,0,0.01
2013-7-21,94.5,79.9,73.9,80.0,75.2,71.0,96,86,60,30.09,30.00,0,0,0,0.11
2013-7-22,93.5,78.5,73.7,80.0,74.8,71.0,96,89,61,30.09,30.02,0,0,0,0.76
2013-7-23,90.9,80.1,74.2,79.0,74.7,73.0,96,84,60,30.05,29.91,0,0,0,0.00
2013-7-24,90.4,79.2,73.5,78.0,75.4,71.0,96,88,65,29.96,29.84,0,0,0,0.28
2013-7-25,85.4,78.7,73.1,78.0,75.7,72.0,96,91,73,29.93,29.83,0,0,0,0.10
2013-7-26,96.2,83.2,75.9,82.0,77.5,74.0,97,84,61,29.96,29.89,0,0,0,0.22
2013-7-27,99.5,83.7,75.9,82.0,77.0,74.0,96,82,56,29.95,29.86,0,0,0,0.00
2013-7-28,100.2,82.9,77.8,81.0,76.3,73.0,94,81,54,30.02,29.89,0,0,0,0.16
2013-7-29,99.7,82.3,75.8,82.0,76.3,74.0,94,83,56,30.11,29.98,0,0,0,0.00
2013-7-30,102.5,85.6,77.0,83.0,78.2,76.0,95,80,52,30.13,30.06,0,0,0,0.00
2013-7-31,95.3,84.7,77.8,81.0,77.9,75.0,95,81,60,30.09,29.98,0,0,0,0.00